Ashland, WI

6:03 AM CDT on May 24, 2017 (GMT -0500)
Kennedy Memorial

Weather History for KASX - September, 2013

Change the Weather History Date:

Sunday, September 8, 2013

  Actual Average Record
Temperature  
Mean Temperature 57 °F -  
Max Temperature 71 °F 73 °F 96 °F (1976)
Min Temperature 45 °F 48 °F 30 °F (1956)
Degree Days  
Heating Degree Days 8    
Growing Degree Days 7 (Base 50)    
Moisture  
Dew Point 53 °F    
Average Humidity 84    
Maximum Humidity 100    
Minimum Humidity 53    
Precipitation  
Precipitation 0.00 in - - ()
Sea Level Pressure  
Sea Level Pressure 30.09 in    
Wind  
Wind Speed 2 mph (ENE)    
Max Wind Speed 12 mph    
Max Gust Speed -    
Visibility 10 miles    
Events      
Averages and records for this station are not official NWS values.
T = Trace of Precipitation, MM = Missing Value Source: NWS Daily Summary

Daily Weather History Graph

Daily Weather History Graph

Search for Another Location

Airport or City:

Trip Planner

Search our weather history database for the weather conditions in past years. The results will help you decide how hot, cold, wet, or windy it might be!

Date:

Astronomy

Sep. 08, 2013 Rise Set
Actual Time 6:32 AM CDT 7:28 PM CDT
Civil Twilight 6:02 AM CDT 7:59 PM CDT
Nautical Twilight 5:25 AM CDT 8:35 PM CDT
Astronomical Twilight 4:46 AM CDT 9:14 PM CDT
Moon 10:05 AM CDT (9/8) 8:47 PM CDT (9/8)
Length of Visible Light 13h 57m
Length of Day
12h 55m
Waxing Crescent, 11% of the Moon is Illuminated
Sep 8
Waxing Crescent
Sep 12
First Quarter
Sep 19
Full
Sep 26
Last Quarter
Oct 4
New

Hourly Weather History & Observations

Time (CDT) Temp. Dew Point Humidity Pressure Visibility Wind Dir Wind Speed Gust Speed Precip Events Conditions
12:53 AM 48.9 °F 48.0 °F 97% 30.14 in 5.0 mi Calm Calm - N/A   Clear
1:53 AM 50.0 °F 48.9 °F 96% 30.16 in 10.0 mi Calm Calm - N/A   Clear
2:53 AM 46.9 °F 46.0 °F 97% 30.16 in 10.0 mi Calm Calm - N/A   Clear
3:53 AM 46.9 °F 45.0 °F 93% 30.16 in 10.0 mi Calm Calm - N/A   Clear
4:53 AM 46.9 °F 46.0 °F 97% 30.17 in 10.0 mi Calm Calm - N/A   Clear
5:53 AM 46.0 °F 46.0 °F 100% 30.17 in 10.0 mi Calm Calm - N/A   Clear
6:53 AM 45.0 °F 44.1 °F 97% 30.17 in 8.0 mi Calm Calm - N/A   Clear
7:53 AM 53.1 °F 52.0 °F 96% 30.18 in 10.0 mi Calm Calm - N/A   Clear
8:53 AM 59.0 °F 52.0 °F 78% 30.18 in 10.0 mi East 3.5 mph - N/A   Clear
9:53 AM 61.0 °F 53.1 °F 75% 30.18 in 10.0 mi Calm Calm - N/A   Clear
10:53 AM 68.0 °F 54.0 °F 61% 30.17 in 10.0 mi Variable 5.8 mph - N/A   Clear
11:53 AM 68.0 °F 53.1 °F 59% 30.14 in 10.0 mi East 6.9 mph - N/A   Clear
12:53 PM 68.0 °F 57.9 °F 70% 30.12 in 10.0 mi NNE 8.1 mph - N/A   Clear
1:53 PM 69.1 °F 51.1 °F 53% 30.09 in 10.0 mi SE 3.5 mph - N/A   Clear
2:53 PM 68.0 °F 57.9 °F 70% 30.07 in 10.0 mi NE 10.4 mph - N/A   Clear
3:53 PM 66.9 °F 57.0 °F 70% 30.05 in 10.0 mi NE 11.5 mph - N/A   Clear
4:53 PM 66.9 °F 57.9 °F 73% 30.03 in 10.0 mi ENE 8.1 mph - N/A   Clear
5:53 PM 64.9 °F 57.9 °F 78% 30.02 in 10.0 mi NE 6.9 mph - N/A   Overcast
6:53 PM 63.0 °F 59.0 °F 87% 30.01 in 10.0 mi ENE 4.6 mph - N/A   Mostly Cloudy
7:53 PM 61.0 °F 59.0 °F 93% 30.00 in 10.0 mi NE 3.5 mph - N/A   Scattered Clouds
8:53 PM 61.0 °F 59.0 °F 93% 29.99 in 10.0 mi NE 3.5 mph - N/A   Overcast
9:53 PM 62.1 °F 59.0 °F 90% 29.97 in 10.0 mi Calm Calm - N/A   Overcast
10:53 PM 61.0 °F 59.0 °F 93% 29.96 in 10.0 mi Calm Calm - N/A   Overcast
11:53 PM 61.0 °F 59.0 °F 93% 29.95 in 10.0 mi Calm Calm - N/A   Overcast